| time (UTC) | temp C | wind direction | speed KPH | gust KPH | rain 1hr cm | rain 24hr cm | rain mn cm | humidity % | barometer mb |
| 20260510143003 | 20 | 54 | 8.0 | 19.3 | 0.00 | 0.00 | 0.00 | 62 | 1007.3 |
| 20260510142003 | 20 | 33 | 8.0 | 20.9 | 0.00 | 0.00 | 0.00 | 60 | 1007.4 |
| 20260510141006 | 20 | 8 | 6.4 | 14.5 | 0.00 | 0.00 | 0.00 | 60 | 1007.6 |
| 20260510140003 | 21 | 20 | 6.4 | 20.9 | 0.00 | 0.00 | 0.00 | 60 | 1007.6 |
| 20260510135003 | 21 | 11 | 4.8 | 12.9 | 0.00 | 0.00 | 0.00 | 56 | 1007.8 |
| 20260510134003 | 21 | 54 | 4.8 | 12.9 | 0.00 | 0.00 | 0.00 | 54 | 1008.0 |
| 20260510133003 | 21 | 33 | 3.2 | 11.3 | 0.00 | 0.00 | 0.00 | 53 | 1008.0 |
| 20260510132006 | 21 | 357 | 3.2 | 6.4 | 0.00 | 0.00 | 0.00 | 52 | 1008.1 |
| 20260510131003 | 21 | 15 | 3.2 | 8.0 | 0.00 | 0.00 | 0.00 | 53 | 1008.2 |
| 20260510130003 | 21 | 66 | 4.8 | 9.7 | 0.00 | 0.00 | 0.00 | 52 | 1008.3 |
| 20260510125003 | 21 | 38 | 3.2 | 9.7 | 0.00 | 0.00 | 0.00 | 52 | 1008.3 |
| 20260510124220 | 21 | 262 | 1.6 | 8.0 | 0.00 | 0.00 | 0.00 | 52 | 1008.5 |
| 20260510123003 | 21 | 95 | 4.8 | 9.7 | 0.00 | 0.00 | 0.00 | 53 | 1008.6 |
| 20260510122006 | 21 | 58 | 3.2 | 14.5 | 0.00 | 0.00 | 0.00 | 52 | 1008.7 |
| 20260510121003 | 21 | 36 | 1.6 | 9.7 | 0.00 | 0.00 | 0.00 | 55 | 1008.9 |
| 20260510120218 | 21 | 83 | 4.8 | 9.7 | 0.00 | 0.00 | 0.00 | 55 | 1009.0 |
| 20260510115003 | 21 | 44 | 4.8 | 9.7 | 0.00 | 0.00 | 0.00 | 54 | 1009.1 |
| 20260510114003 | 21 | 80 | 3.2 | 9.7 | 0.00 | 0.00 | 0.00 | 54 | 1009.2 |
| 20260510113003 | 21 | 181 | 3.2 | 11.3 | 0.00 | 0.00 | 0.00 | 54 | 1009.3 |
| 20260510112003 | 21 | 135 | 3.2 | 8.0 | 0.00 | 0.00 | 0.00 | 55 | 1009.4 |
| 20260510111003 | 20 | 156 | 3.2 | 9.7 | 0.00 | 0.00 | 0.00 | 56 | 1009.6 |
| 20260510110217 | 20 | 169 | 3.2 | 9.7 | 0.00 | 0.00 | 0.00 | 55 | 1009.7 |
| 20260510105003 | 19 | 159 | 4.8 | 9.7 | 0.00 | 0.00 | 0.00 | 59 | 1009.8 |
| 20260510104003 | 19 | 185 | 4.8 | 9.7 | 0.00 | 0.00 | 0.00 | 57 | 1010.0 |
| 20260510103003 | 19 | 153 | 6.4 | 11.3 | 0.00 | 0.00 | 0.00 | 59 | 1010.1 |
| 20260510102003 | 18 | 181 | 6.4 | 12.9 | 0.00 | 0.00 | 0.00 | 60 | 1010.2 |
| 20260510101003 | 18 | 173 | 4.8 | 11.3 | 0.00 | 0.00 | 0.00 | 65 | 1010.3 |
| 20260510100003 | 18 | 177 | 4.8 | 12.9 | 0.00 | 0.00 | 0.00 | 64 | 1010.5 |
| 20260510095003 | 17 | 157 | 4.8 | 16.1 | 0.00 | 0.00 | 0.00 | 66 | 1010.6 |
| 20260510094003 | 17 | 153 | 4.8 | 12.9 | 0.00 | 0.00 | 0.00 | 68 | 1010.8 |
| 20260510093003 | 17 | 148 | 4.8 | 12.9 | 0.00 | 0.00 | 0.00 | 68 | 1011.0 |
| 20260510092003 | 16 | 128 | 4.8 | 14.5 | 0.00 | 0.00 | 0.00 | 69 | 1011.0 |
| 20260510091003 | 16 | 134 | 3.2 | 12.9 | 0.00 | 0.00 | 0.00 | 72 | 1011.1 |
| 20260510090217 | 15 | 153 | 4.8 | 12.9 | 0.00 | 0.00 | 0.00 | 74 | 1011.2 |
| 20260510085006 | 14 | 193 | 4.8 | 8.0 | 0.00 | 0.00 | 0.00 | 75 | 1011.5 |
| 20260510084003 | 13 | 155 | 4.8 | 11.3 | 0.00 | 0.00 | 0.00 | 76 | 1011.5 |
| 20260510083003 | 13 | 160 | 3.2 | 11.3 | 0.00 | 0.00 | 0.00 | 78 | 1011.6 |
| 20260510082216 | 13 | 166 | 4.8 | 9.7 | 0.00 | 0.00 | 0.00 | 78 | 1011.7 |
| 20260510081003 | 12 | 179 | 4.8 | 11.3 | 0.00 | 0.00 | 0.00 | 80 | 1011.9 |
| 20260510080006 | 12 | 163 | 4.8 | 8.0 | 0.00 | 0.00 | 0.00 | 82 | 1012.0 |
| 20260510075003 | 12 | 163 | 3.2 | 8.0 | 0.00 | 0.00 | 0.00 | 84 | 1011.9 |
| 20260510074003 | 11 | 151 | 3.2 | 9.7 | 0.00 | 0.00 | 0.00 | 85 | 1012.0 |
| 20260510073003 | 11 | 154 | 3.2 | 8.0 | 0.00 | 0.00 | 0.00 | 89 | 1012.0 |
| 20260510072003 | 11 | 140 | 1.6 | 4.8 | 0.00 | 0.00 | 0.00 | 91 | 1012.0 |
| 20260510071006 | 10 | 160 | 1.6 | 4.8 | 0.00 | 0.00 | 0.00 | 92 | 1012.2 |
| 20260510070004 | 10 | 0 | 0.0 | 3.2 | 0.00 | 0.00 | 0.00 | 93 | 1012.4 |
| 20260510065003 | 10 | 152 | 1.6 | 3.2 | 0.00 | 0.00 | 0.00 | 93 | 1012.5 |
| 20260510064003 | 9 | 131 | 1.6 | 4.8 | 0.00 | 0.00 | 0.00 | 94 | 1012.4 |
| 20260510063003 | 8 | 139 | 1.6 | 4.8 | 0.00 | 0.00 | 0.00 | 94 | 1012.3 |
| 20260510062007 | 8 | 147 | 3.2 | 6.4 | 0.00 | 0.00 | 0.00 | 94 | 1012.3 |
| 20260510061217 | 8 | 140 | 1.6 | 4.8 | 0.00 | 0.00 | 0.00 | 94 | 1012.4 |
| 20260510060003 | 8 | 133 | 1.6 | 4.8 | 0.00 | 0.00 | 0.00 | 94 | 1012.6 |
| 20260510055217 | 7 | 166 | 0.0 | 4.8 | 0.00 | 0.00 | 0.00 | 95 | 1012.7 |
| 20260510054003 | 7 | 0 | 0.0 | 0.0 | 0.00 | 0.00 | 0.00 | 95 | 1012.8 |
| 20260510053217 | 7 | 0 | 0.0 | 3.2 | 0.00 | 0.00 | 0.00 | 94 | 1012.8 |
| 20260510052003 | 7 | 0 | 0.0 | 0.0 | 0.00 | 0.00 | 0.00 | 95 | 1013.0 |
| 20260510051222 | 6 | 196 | 1.6 | 3.2 | 0.00 | 0.00 | 0.00 | 95 | 1012.8 |
| 20260510050006 | 6 | 172 | 0.0 | 3.2 | 0.00 | 0.00 | 0.00 | 94 | 1012.9 |
| 20260510045003 | 6 | 157 | 1.6 | 4.8 | 0.00 | 0.00 | 0.00 | 94 | 1012.8 |
| 20260510044003 | 6 | 0 | 0.0 | 3.2 | 0.00 | 0.00 | 0.00 | 94 | 1013.0 |
| 20260510043221 | 6 | 0 | 0.0 | 0.0 | 0.00 | 0.00 | 0.00 | 94 | 1013.0 |
| 20260510042006 | 6 | 0 | 0.0 | 0.0 | 0.00 | 0.00 | 0.00 | 94 | 1013.1 |
| 20260510041003 | 6 | 0 | 0.0 | 0.0 | 0.00 | 0.00 | 0.00 | 94 | 1013.1 |
| 20260510040003 | 6 | 0 | 0.0 | 0.0 | 0.00 | 0.00 | 0.00 | 93 | 1013.0 |
| 20260510035221 | 5 | 0 | 0.0 | 0.0 | 0.00 | 0.00 | 0.00 | 93 | 1013.0 |
| 20260510034003 | 5 | 0 | 0.0 | 0.0 | 0.00 | 0.00 | 0.00 | 93 | 1012.9 |
| 20260510033003 | 5 | 0 | 0.0 | 1.6 | 0.00 | 0.00 | 0.00 | 93 | 1013.0 |
| 20260510032003 | 5 | 0 | 0.0 | 1.6 | 0.00 | 0.00 | 0.00 | 93 | 1013.1 |
| 20260510031006 | 6 | 0 | 0.0 | 3.2 | 0.00 | 0.00 | 0.00 | 93 | 1013.1 |
| 20260510030006 | 6 | 0 | 0.0 | 0.0 | 0.00 | 0.00 | 0.00 | 93 | 1013.1 |
| 20260510025219 | 6 | 0 | 0.0 | 0.0 | 0.00 | 0.00 | 0.00 | 93 | 1013.2 |
| 20260510024006 | 6 | 0 | 0.0 | 0.0 | 0.00 | 0.00 | 0.00 | 93 | 1013.2 |
| 20260510023003 | 6 | 0 | 0.0 | 0.0 | 0.00 | 0.00 | 0.00 | 92 | 1013.5 |
| 20260510022006 | 6 | 0 | 0.0 | 0.0 | 0.00 | 0.00 | 0.00 | 92 | 1013.5 |
| 20260510021218 | 6 | 0 | 0.0 | 0.0 | 0.00 | 0.00 | 0.00 | 92 | 1013.5 |
| 20260510020003 | 6 | 0 | 0.0 | 0.0 | 0.00 | 0.00 | 0.00 | 92 | 1013.6 |
| 20260510015006 | 6 | 0 | 0.0 | 0.0 | 0.00 | 0.00 | 0.00 | 92 | 1013.7 |
| 20260510014003 | 6 | 0 | 0.0 | 0.0 | 0.00 | 0.00 | 0.00 | 92 | 1013.9 |
| 20260510013006 | 6 | 0 | 0.0 | 0.0 | 0.00 | 0.00 | 0.00 | 91 | 1013.9 |
| 20260510012003 | 6 | 0 | 0.0 | 0.0 | 0.00 | 0.00 | 0.00 | 91 | 1014.0 |
| 20260510011218 | 6 | 0 | 0.0 | 0.0 | 0.00 | 0.00 | 0.00 | 91 | 1014.0 |
| 20260510010003 | 6 | 0 | 0.0 | 0.0 | 0.00 | 0.00 | 0.00 | 91 | 1014.1 |
| 20260510005217 | 7 | 0 | 0.0 | 0.0 | 0.00 | 0.00 | 0.00 | 90 | 1014.0 |
| 20260510004003 | 7 | 0 | 0.0 | 1.6 | 0.00 | 0.00 | 0.00 | 90 | 1014.2 |
| 20260510003004 | 7 | 223 | 0.0 | 1.6 | 0.00 | 0.00 | 0.00 | 90 | 1014.4 |
| 20260510002221 | 7 | 223 | 1.6 | 1.6 | 0.00 | 0.00 | 0.00 | 90 | 1014.5 |
| 20260510001003 | 7 | 222 | 1.6 | 6.4 | 0.00 | 0.00 | 0.00 | 89 | 1014.6 |
| 20260510000003 | 7 | 0 | 0.0 | 0.0 | 0.00 | 0.00 | 0.00 | 89 | 1014.7 |
| 20260509235217 | 8 | 302 | 1.6 | 1.6 | 0.00 | 0.00 | 0.00 | 89 | 1014.8 |
| 20260509234217 | 8 | 309 | 1.6 | 4.8 | 0.00 | 0.00 | 0.00 | 89 | 1014.8 |
| 20260509233003 | 8 | 0 | 0.0 | 0.0 | 0.00 | 0.00 | 0.00 | 88 | 1014.9 |
| 20260509232003 | 8 | 327 | 0.0 | 4.8 | 0.00 | 0.00 | 0.00 | 88 | 1014.9 |
| 20260509231217 | 8 | 324 | 1.6 | 4.8 | 0.00 | 0.00 | 0.00 | 88 | 1014.9 |
| 20260509230006 | 8 | 303 | 3.2 | 4.8 | 0.00 | 0.00 | 0.00 | 88 | 1015.1 |
| 20260509225006 | 8 | 313 | 0.0 | 4.8 | 0.00 | 0.00 | 0.00 | 87 | 1015.3 |
| 20260509224003 | 8 | 0 | 0.0 | 0.0 | 0.00 | 0.00 | 0.00 | 87 | 1015.4 |
| 20260509223006 | 8 | 0 | 0.0 | 0.0 | 0.00 | 0.00 | 0.00 | 86 | 1015.4 |
| 20260509222217 | 9 | 0 | 0.0 | 0.0 | 0.00 | 0.00 | 0.00 | 85 | 1015.5 |
| 20260509221003 | 10 | 302 | 3.2 | 4.8 | 0.00 | 0.00 | 0.00 | 84 | 1015.5 |
| 20260509220220 | 10 | 303 | 3.2 | 4.8 | 0.00 | 0.00 | 0.00 | 83 | 1015.5 |
| 20260509215003 | 10 | 303 | 3.2 | 4.8 | 0.00 | 0.00 | 0.00 | 83 | 1015.4 |
| 20260509214008 | 10 | 307 | 3.2 | 4.8 | 0.00 | 0.00 | 0.00 | 83 | 1015.4 |
| 20260509213003 | 10 | 304 | 3.2 | 4.8 | 0.00 | 0.00 | 0.00 | 83 | 1015.4 |
| 20260509212003 | 10 | 304 | 0.0 | 4.8 | 0.00 | 0.00 | 0.00 | 82 | 1015.4 |
| 20260509211003 | 10 | 334 | 0.0 | 1.6 | 0.00 | 0.00 | 0.00 | 82 | 1015.5 |
| 20260509210006 | 10 | 322 | 1.6 | 4.8 | 0.00 | 0.00 | 0.00 | 81 | 1015.5 |
| 20260509205003 | 11 | 12 | 1.6 | 3.2 | 0.00 | 0.00 | 0.00 | 81 | 1015.5 |
| 20260509204003 | 11 | 319 | 3.2 | 6.4 | 0.00 | 0.00 | 0.00 | 80 | 1015.5 |
| 20260509203003 | 11 | 317 | 3.2 | 6.4 | 0.00 | 0.00 | 0.00 | 80 | 1015.5 |
| 20260509202003 | 11 | 323 | 1.6 | 4.8 | 0.00 | 0.00 | 0.00 | 79 | 1015.6 |
| 20260509201003 | 11 | 348 | 1.6 | 3.2 | 0.00 | 0.00 | 0.00 | 79 | 1015.5 |
| 20260509200006 | 11 | 348 | 3.2 | 4.8 | 0.00 | 0.00 | 0.00 | 79 | 1015.4 |
| 20260509195003 | 11 | 318 | 1.6 | 4.8 | 0.00 | 0.00 | 0.00 | 78 | 1015.6 |
| 20260509194003 | 11 | 317 | 3.2 | 4.8 | 0.00 | 0.00 | 0.00 | 78 | 1015.5 |
| 20260509193003 | 11 | 315 | 3.2 | 4.8 | 0.00 | 0.00 | 0.00 | 77 | 1015.5 |
| 20260509192003 | 12 | 322 | 1.6 | 4.8 | 0.00 | 0.00 | 0.00 | 75 | 1015.3 |
| 20260509191006 | 12 | 323 | 3.2 | 3.2 | 0.00 | 0.00 | 0.00 | 74 | 1015.0 |
| 20260509190006 | 13 | 360 | 3.2 | 6.4 | 0.00 | 0.00 | 0.00 | 72 | 1014.9 |
| 20260509185007 | 13 | 7 | 1.6 | 6.4 | 0.00 | 0.00 | 0.00 | 70 | 1014.9 |
| 20260509184003 | 13 | 33 | 3.2 | 6.4 | 0.00 | 0.00 | 0.00 | 69 | 1014.9 |
| 20260509183003 | 13 | 56 | 4.8 | 8.0 | 0.00 | 0.00 | 0.00 | 69 | 1014.9 |
| 20260509182006 | 14 | 50 | 6.4 | 14.5 | 0.00 | 0.00 | 0.00 | 68 | 1014.9 |
| 20260509181006 | 14 | 47 | 6.4 | 17.7 | 0.00 | 0.00 | 0.00 | 67 | 1014.8 |
| 20260509180223 | 14 | 46 | 8.0 | 17.7 | 0.00 | 0.00 | 0.00 | 67 | 1014.9 |
| 20260509175006 | 15 | 40 | 8.0 | 17.7 | 0.00 | 0.00 | 0.00 | 66 | 1015.0 |
| 20260509174217 | 15 | 40 | 6.4 | 17.7 | 0.00 | 0.00 | 0.00 | 66 | 1015.0 |
| 20260509173003 | 15 | 53 | 6.4 | 16.1 | 0.00 | 0.00 | 0.00 | 65 | 1014.9 |
| 20260509172006 | 15 | 40 | 8.0 | 19.3 | 0.00 | 0.00 | 0.00 | 65 | 1015.0 |
| 20260509171003 | 15 | 45 | 8.0 | 16.1 | 0.00 | 0.00 | 0.00 | 64 | 1015.0 |
| 20260509170003 | 16 | 48 | 8.0 | 20.9 | 0.00 | 0.00 | 0.00 | 64 | 1014.9 |
| 20260509165216 | 16 | 78 | 8.0 | 17.7 | 0.00 | 0.00 | 0.00 | 64 | 1014.8 |
| 20260509164003 | 16 | 73 | 8.0 | 19.3 | 0.00 | 0.00 | 0.00 | 62 | 1014.9 |
| 20260509163006 | 16 | 78 | 8.0 | 16.1 | 0.00 | 0.00 | 0.00 | 60 | 1014.9 |
| 20260509162003 | 16 | 76 | 6.4 | 16.1 | 0.00 | 0.00 | 0.00 | 60 | 1014.9 |
| 20260509161218 | 16 | 51 | 6.4 | 14.5 | 0.00 | 0.00 | 0.00 | 61 | 1015.0 |
| 20260509160006 | 16 | 46 | 8.0 | 17.7 | 0.00 | 0.00 | 0.00 | 61 | 1015.1 |
| 20260509155223 | 16 | 50 | 8.0 | 16.1 | 0.00 | 0.00 | 0.00 | 61 | 1015.2 |
| 20260509154003 | 16 | 47 | 8.0 | 17.7 | 0.00 | 0.00 | 0.00 | 61 | 1015.3 |
| 20260509153003 | 16 | 49 | 6.4 | 16.1 | 0.00 | 0.00 | 0.00 | 63 | 1015.4 |
| 20260509152003 | 16 | 66 | 8.0 | 20.9 | 0.00 | 0.00 | 0.00 | 60 | 1015.6 |
| 20260509151003 | 17 | 60 | 6.4 | 16.1 | 0.00 | 0.00 | 0.00 | 61 | 1015.6 |
| 20260509150218 | 16 | 55 | 6.4 | 14.5 | 0.00 | 0.00 | 0.00 | 62 | 1015.6 |
| 20260509145006 | 16 | 31 | 8.0 | 17.7 | 0.00 | 0.00 | 0.00 | 62 | 1015.8 |
| 20260509144003 | 16 | 49 | 8.0 | 16.1 | 0.00 | 0.00 | 0.00 | 62 | 1015.7 |